Weather History for 41217 - October, 2013

Change the Weather History Date:

Monday, October 14, 2013

  Actual Average Record
Temperature  
Mean Temperature 86 °F -  
Max Temperature 96 °F 91 °F - ()
Min Temperature 76 °F 69 °F - ()
Cooling Degree Days 21    
Growing Degree Days 36 (Base 50)    
Moisture  
Dew Point 70 °F    
Average Humidity 60    
Maximum Humidity 83    
Minimum Humidity 23    
Precipitation  
Precipitation 0.00 in 0.00 in - ()
Sea Level Pressure  
Sea Level Pressure 29.82 in    
Wind  
Wind Speed 6 mph ()    
Max Wind Speed 18 mph    
Max Gust Speed -    
Visibility 6.0 miles    
Events      
T = Trace of Precipitation, MM = Missing Value Source: Averaged Metar Reports

Daily Weather History Graph

Daily Weather History Graph

Search for Another Location

Airport or City:

Trip Planner

Search our weather history database for the weather conditions in past years. The results will help you decide how hot, cold, wet, or windy it might be!

Date:

Astronomy

Oct. 14, 2013 Rise Set
Actual Time 6:18 AM GST 5:55 PM GST
Civil Twilight 5:55 AM GST 6:18 PM GST
Nautical Twilight 5:29 AM GST 6:45 PM GST
Astronomical Twilight 5:02 AM GST 7:11 PM GST
Moon 2:43 PM GST (10/14) 1:38 AM GST (10/14)
Length of Visible Light 12h 22m
Length of Day
11h 37m
Waxing Gibbous, 76% of the Moon is Illuminated
Oct 14
Waxing Gibbous
Oct 19
Full
Oct 27
Last Quarter
Nov 3
New
Nov 10
First Quarter

Hourly Weather History & Observations

Time (GST) Temp. Heat Index Dew Point Humidity Pressure Visibility Wind Dir Wind Speed Gust Speed Precip Events Conditions
12:00 AM 84.2 °F 90.9 °F 73.4 °F 70% 29.77 in - WNW 9.2 mph - N/A   Clear
1:00 AM 81 °F - 74 °F 73% 29.79 in 6 mi NNW 3.5 mph - -  
1:00 AM 80.6 °F 85.4 °F 73.4 °F 79% 29.77 in - NNW 3.5 mph - N/A   Clear
2:00 AM 80.6 °F 84.6 °F 71.6 °F 74% 29.77 in - East 3.5 mph - N/A   Clear
3:00 AM 82.4 °F 88.2 °F 73.4 °F 74% 29.77 in - NNW 5.8 mph - N/A   Clear
4:00 AM 80 °F - 73 °F 74% 29.79 in 6 mi NW 5.8 mph - -  
4:00 AM 80.6 °F 85.4 °F 73.4 °F 79% 29.77 in - NW 5.8 mph - N/A   Clear
5:00 AM 80.6 °F 84.6 °F 71.6 °F 74% 29.80 in - West 2.3 mph - N/A   Clear
6:00 AM 77.0 °F - 71.6 °F 83% 29.80 in - SSW 4.6 mph - N/A   Clear
7:00 AM 78 °F - 72 °F 75% 29.83 in 6 mi West 3.5 mph - -  
7:00 AM 78.8 °F - 71.6 °F 78% 29.83 in - West 3.5 mph - N/A   Clear
8:00 AM 80.6 °F 84.6 °F 71.6 °F 74% 29.86 in - SSW 2.3 mph - N/A   Clear
9:00 AM 86.0 °F 91.8 °F 71.6 °F 62% 29.86 in - WSW 2.3 mph - N/A   Clear
10:00 AM 88 °F - 71 °F 47% 29.89 in 6 mi West 3.5 mph - -  
10:00 AM 87.8 °F 92.6 °F 69.8 °F 55% 29.89 in - West 3.5 mph - N/A   Clear
11:00 AM 91.4 °F 96.8 °F 69.8 °F 49% 29.86 in - NE 3.5 mph - N/A   Clear
12:00 PM 93.2 °F 96.2 °F 66.2 °F 41% 29.86 in - WSW 3.5 mph - N/A   Clear
1:00 PM 96 °F - 62 °F 23% 29.82 in 6 mi WNW 4.6 mph - -  
1:00 PM 95.0 °F 96.0 °F 62.6 °F 34% 29.83 in - WNW 4.6 mph - N/A   Clear
2:00 PM 93.2 °F 98.8 °F 69.8 °F 46% 29.80 in - WNW 12.7 mph - N/A   Clear
3:00 PM 91.4 °F 98.4 °F 71.6 °F 52% 29.77 in - NW 13.8 mph - N/A   Clear
4:00 PM 90 °F - 72 °F 47% 29.79 in 6 mi NW 17.3 mph - -  
4:00 PM 89.6 °F 98.2 °F 73.4 °F 59% 29.77 in - NW 17.3 mph - N/A   Clear
5:00 PM 87.8 °F 92.6 °F 69.8 °F 55% 29.80 in - NW 18.4 mph - N/A   Clear
6:00 PM 87.8 °F 88.5 °F 62.6 °F 43% 29.80 in - NW 16.1 mph - N/A   Clear
7:00 PM 86.0 °F 86.6 °F 62.6 °F 45% 29.83 in - NW 13.8 mph - N/A   Clear
8:00 PM 86.0 °F 88.2 °F 66.2 °F 51% 29.83 in - NW 11.5 mph - N/A   Clear
9:00 PM 84.2 °F 86.6 °F 66.2 °F 55% 29.86 in - NNW 6.9 mph - N/A   Clear
10:00 PM 83 °F - 67 °F 50% 29.87 in 6 mi North 4.6 mph - -  
10:00 PM 82.4 °F 85.4 °F 68.0 °F 62% 29.86 in - North 4.6 mph - N/A   Clear
11:00 PM 82.4 °F 85.4 °F 68.0 °F 62% 29.86 in - NNE 5.8 mph - N/A   Clear